Back to catalog

ONEWEB-0585

AliveCommunicationsPO
NORAD 54652·PAYLOAD·🇬🇧 United Kingdom

Launched Dec 8, 2022 from Cape Canaveral Space Force Station

Loading…

Next Passes (next 24 hours)

TLE

FreshSource: CelesTrak SupGP

Epoch: Sep 14, 2026, 09:08 UTC

1 54652C 22166L   26257.38074492  .00002032  00000+0  49252-2 0  2575
2 54652  87.9282 226.2165 0002013  79.0644  33.5407 13.21828108    17

Track ONEWEB-0585 in real time with AllMySat

Download on the App Store